STARLINK-1502, 45764

Orbit data source: Space-Track

STARLINK-1502, 45764 is a payload satellite owned by SpaceX/Seattle (US) in LEO that was launched on Sat, 13 Jun 2020 UTC via an FALCON 9 launch vehicle from the Air Force Eastern Test Range (AFETR). Payload-class satellites include a variety of spacecraft equipped with specific instruments for various scientific and technological missions. These include communications satellites like Starlink; space stations such as the ISS; scientific satellites like the Hubble; Earth observation satellites from companies like Planet Labs, Umbra, and HawkEye 360; GPS; miniature CubeSats for education and research; and military/defense satellites.

Loading next visibility...
Identifier
45764, 2020-038AL
Orbit
LEO
Country
Flag of USUS
Related business
Manufacturer
SpaceX/Seattle
Mission
Operational Commercial Communications
Bus & Motor
STARLINK, Unknown motor
Mass
260 kg wet, ~248 kg dry
Launch date (UTC)
2020-06-13 (5 years ago)
Launch vehicle
FALCON 9
Launch site
Air Force Eastern Test Range (AFETR)
Object type
Payload
Rocket body
Debris
Shape & HBR
Box + 1 Pan, 4.4 m
Radar Cross Section
13.562 m², Large (>1 m²)

Expand to show TLE details & history
Last TLE update: 2 days ago

TLE from 2 days ago
0 STARLINK-1502
1 45764U 20038AL  25260.45567054 -.00000134  00000-0  99176-5 0  9996
2 45764  53.0530 274.2956 0001187  81.6688 278.4435 15.06389186290374
Epoch: 2025-09-17T10:56Z
TLE epoch observation values (Epoch: 2025-09-17T10:56:09.934Z)
Latitude
-0.00007°
Longitude
113.62279°
Altitude
548.003 km
Speed
7.589 km/s
True Right ascension
18h 17m 10s
True Declination
0° 00' 00"
Sunlit
Object was in daylight at epoch
Visualization orbit readout
Latitude
Unknown
Longitude
Unknown
Altitude
Unknown
Speed
Unknown
Apparent Right ascension
Unknown
Apparent Declination
Unknown
Sunlit
N/A
Visualization observer readout
Local Sidereal Time
18:00:44
Azimuth
Unknown
Elevation
Unknown
Doppler factor
Unknown
Orbital elements
Apogee altitude
548.338 km
Perigee altitude
546.694 km
Semi-major axis
6,925.653 km
Eccentricity
0.00012
Inclination
53.053°
RAAN
274.2956°
Arg. of periapsis
81.6688°
True anomaly
278.43005°
Mean anomaly
278.4435°
Eccentric anomaly
278.43677°
Mean motion
3.76576 °/min
Orbital period
95.6 mins
BSTAR
0.0000099176
Loading maneuver chart data...
Computing Atmospheric mass density...

Documentation

Showing up to 5 results
|